• In Deutschland
  • Länderverzeichnis
  • Für 7 Tage
  • Wassertemperatur
  • Satellitenkarten
  • Wetterkarte
  • Widgets
  • user-avatar
    Anmelden

    Stündliche Wetter Igls

    Heute, 26 Juli, Mittwoch

    Zeit Temperatur Niederschläge Wind Luftdruck Luftfeuchtigkeit
    00:00 +11°C° 0,4 mm 1 m/S 679 mmHg 94%
    01:00 +11°C° 0,4 mm 1 m/S 679 mmHg 94%
    02:00 +10°C° 0,4 mm 2 m/S 678 mmHg 94%
    03:00 +10°C° 0,4 mm 2 m/S 678 mmHg 94%
    04:00 +10°C° 0,4 mm 2 m/S 678 mmHg 94%
    05:00 +10°C° 1 mm 2 m/S 678 mmHg 94%
    06:00 +10°C° 1 mm 2 m/S 678 mmHg 93%
    07:00 +10°C° 1 mm 2 m/S 678 mmHg 93%
    08:00 +12°C° 1,2 mm 2 m/S 679 mmHg 90%
    09:00 +13°C° 1,2 mm 2 m/S 679 mmHg 88%
    10:00 +13°C° 1,2 mm 2 m/S 679 mmHg 86%
    11:00 +13°C° 1 mm 2 m/S 680 mmHg 85%
    12:00 +14°C° 1 mm 2 m/S 680 mmHg 84%
    13:00 +14°C° 1 mm 2 m/S 680 mmHg 83%
    14:00 +14°C° 1,2 mm 2 m/S 680 mmHg 85%
    15:00 +14°C° 1,2 mm 2 m/S 680 mmHg 86%
    16:00 +14°C° 1,2 mm 2 m/S 680 mmHg 88%
    17:00 +13°C° 1,3 mm 2 m/S 681 mmHg 89%
    18:00 +13°C° 1,3 mm 2 m/S 681 mmHg 91%
    19:00 +12°C° 1,3 mm 2 m/S 681 mmHg 93%
    20:00 +12°C° 1,1 mm 2 m/S 681 mmHg 94%
    21:00 +12°C° 1,1 mm 2 m/S 682 mmHg 94%
    22:00 +10°C° 1,1 mm 2 m/S 682 mmHg 95%
    23:00 +10°C° 0,3 mm 2 m/S 682 mmHg 95%

    Morgen, 27 Juli, Donnerstag

    Zeit Temperatur Niederschläge Wind Luftdruck Luftfeuchtigkeit
    00:00 +10°C° 0,3 mm 2 m/S 682 mmHg 94%
    01:00 +10°C° 0,3 mm 2 m/S 682 mmHg 94%
    02:00 +9°C° 0 mm 2 m/S 682 mmHg 94%
    03:00 +9°C° 0 mm 2 m/S 682 mmHg 94%
    04:00 +8°C° 0 mm 2 m/S 681 mmHg 93%
    05:00 +10°C° 0 mm 2 m/S 682 mmHg 89%
    06:00 +12°C° 0 mm 1 m/S 682 mmHg 85%
    07:00 +14°C° 0 mm 1 m/S 682 mmHg 80%
    08:00 +14°C° 0,3 mm 1 m/S 682 mmHg 77%
    09:00 +15°C° 0,3 mm 1 m/S 683 mmHg 74%
    10:00 +16°C° 0,3 mm 1 m/S 683 mmHg 71%
    11:00 +16°C° 0,5 mm 1 m/S 683 mmHg 73%
    12:00 +16°C° 0,5 mm 1 m/S 683 mmHg 74%
    13:00 +18°C° 0,5 mm 1 m/S 683 mmHg 76%
    14:00 +19°C° 0,2 mm 1 m/S 683 mmHg 75%
    15:00 +20°C° 0,2 mm 1 m/S 683 mmHg 74%
    16:00 +20°C° 0,2 mm 2 m/S 683 mmHg 73%
    17:00 +20°C° 0,1 mm 1 m/S 683 mmHg 77%
    18:00 +19°C° 0,1 mm 1 m/S 683 mmHg 81%
    19:00 +19°C° 0,1 mm 1 m/S 683 mmHg 85%
    20:00 +18°C° 0,1 mm 1 m/S 683 mmHg 88%
    21:00 +16°C° 0,1 mm 1 m/S 683 mmHg 91%
    22:00 +15°C° 0,1 mm 1 m/S 683 mmHg 94%
    23:00 +14°C° 0,3 mm 1 m/S 683 mmHg 94%

    übermorgen, 28 Juli, Freitag

    Zeit Temperatur Niederschläge Wind Luftdruck Luftfeuchtigkeit
    00:00 +14°C° 0,3 mm 1 m/S 683 mmHg 95%
    01:00 +13°C° 0,3 mm 1 m/S 683 mmHg 95%
    02:00 +13°C° 0,1 mm 1 m/S 683 mmHg 95%
    03:00 +13°C° 0,1 mm 1 m/S 683 mmHg 95%
    04:00 +13°C° 0,1 mm 1 m/S 683 mmHg 95%
    05:00 +15°C° 0 mm 1 m/S 684 mmHg 92%
    06:00 +16°C° 0 mm 1 m/S 684 mmHg 89%
    07:00 +18°C° 0 mm 1 m/S 684 mmHg 87%
    08:00 +19°C° 0,2 mm 1 m/S 684 mmHg 84%
    09:00 +20°C° 0,2 mm 1 m/S 685 mmHg 80%
    10:00 +21°C° 0,2 mm 1 m/S 685 mmHg 77%
    11:00 +21°C° 0,2 mm 1 m/S 685 mmHg 76%
    12:00 +22°C° 0,2 mm 1 m/S 685 mmHg 75%
    13:00 +21°C° 0,2 mm 2 m/S 685 mmHg 74%
    14:00 +23°C° 0,2 mm 2 m/S 686 mmHg 72%
    15:00 +23°C° 0,2 mm 2 m/S 686 mmHg 71%
    16:00 +23°C° 0,2 mm 2 m/S 686 mmHg 69%
    17:00 +21°C° 0,1 mm 2 m/S 686 mmHg 75%
    18:00 +20°C° 0,1 mm 2 m/S 686 mmHg 81%
    19:00 +20°C° 0,1 mm 1 m/S 686 mmHg 87%
    20:00 +19°C° 0 mm 1 m/S 686 mmHg 90%
    21:00 +18°C° 0 mm 1 m/S 686 mmHg 93%
    22:00 +16°C° 0 mm 1 m/S 687 mmHg 96%
    23:00 +15°C° 0 mm 1 m/S 687 mmHg 96%

    29 Juli, Samstag

    Zeit Temperatur Niederschläge Wind Luftdruck Luftfeuchtigkeit
    00:00 +15°C° 0 mm 1 m/S 686 mmHg 96%
    01:00 +15°C° 0 mm 1 m/S 686 mmHg 95%
    02:00 +15°C° 0 mm 1 m/S 686 mmHg 95%
    03:00 +15°C° 0 mm 1 m/S 686 mmHg 94%
    04:00 +15°C° 0 mm 1 m/S 686 mmHg 94%
    05:00 +16°C° 0,1 mm 1 m/S 687 mmHg 91%
    06:00 +19°C° 0,1 mm 1 m/S 687 mmHg 89%
    07:00 +20°C° 0,1 mm 1 m/S 687 mmHg 86%
    08:00 +21°C° 0,4 mm 1 m/S 688 mmHg 82%
    09:00 +22°C° 0,4 mm 1 m/S 688 mmHg 77%
    10:00 +23°C° 0,4 mm 1 m/S 688 mmHg 73%
    11:00 +23°C° 0,8 mm 1 m/S 688 mmHg 76%
    12:00 +23°C° 0,8 mm 1 m/S 688 mmHg 79%
    13:00 +23°C° 0,8 mm 1 m/S 688 mmHg 82%
    14:00 +22°C° 1,9 mm 1 m/S 688 mmHg 85%
    15:00 +22°C° 1,9 mm 1 m/S 688 mmHg 89%
    16:00 +21°C° 1,9 mm 1 m/S 688 mmHg 92%
    17:00 +20°C° 3,3 mm 1 m/S 688 mmHg 93%
    18:00 +20°C° 3,3 mm 1 m/S 687 mmHg 95%
    19:00 +18°C° 3,3 mm 2 m/S 687 mmHg 96%
    20:00 +19°C° 1,5 mm 1 m/S 688 mmHg 96%
    21:00 +18°C° 1,5 mm 1 m/S 688 mmHg 96%
    22:00 +18°C° 1,5 mm 1 m/S 688 mmHg 96%
    23:00 +16°C° 0,6 mm 1 m/S 688 mmHg 95%

    30 Juli, Sonntag

    Zeit Temperatur Niederschläge Wind Luftdruck Luftfeuchtigkeit
    00:00 +16°C° 0,6 mm 1 m/S 687 mmHg 94%
    01:00 +16°C° 0,6 mm 1 m/S 687 mmHg 93%
    02:00 +16°C° 0,2 mm 1 m/S 687 mmHg 93%
    03:00 +16°C° 0,2 mm 1 m/S 687 mmHg 93%
    04:00 +16°C° 0,2 mm 1 m/S 686 mmHg 92%
    05:00 +18°C° 0 mm 1 m/S 686 mmHg 90%
    06:00 +19°C° 0 mm 1 m/S 687 mmHg 87%
    07:00 +20°C° 0 mm 1 m/S 687 mmHg 85%
    08:00 +23°C° 0,2 mm 1 m/S 687 mmHg 73%
    09:00 +25°C° 0,2 mm 1 m/S 687 mmHg 62%
    10:00 +28°C° 0,2 mm 1 m/S 688 mmHg 50%
    11:00 +28°C° 0,4 mm 1 m/S 687 mmHg 48%
    12:00 +29°C° 0,4 mm 1 m/S 687 mmHg 46%
    13:00 +29°C° 0,4 mm 2 m/S 687 mmHg 44%
    14:00 +29°C° 0,4 mm 1 m/S 687 mmHg 47%
    15:00 +28°C° 0,4 mm 1 m/S 687 mmHg 50%
    16:00 +28°C° 0,4 mm 1 m/S 687 mmHg 53%
    17:00 +26°C° 0,7 mm 1 m/S 687 mmHg 63%
    18:00 +25°C° 0,7 mm 1 m/S 687 mmHg 73%
    19:00 +21°C° 0,7 mm 0 m/S 687 mmHg 83%
    20:00 +22°C° 0,1 mm 1 m/S 687 mmHg 86%
    21:00 +20°C° 0,1 mm 1 m/S 687 mmHg 89%
    22:00 +18°C° 0,1 mm 1 m/S 687 mmHg 91%
    23:00 +18°C° 0 mm 1 m/S 687 mmHg 92%

    31 Juli, Montag

    Zeit Temperatur Niederschläge Wind Luftdruck Luftfeuchtigkeit
    00:00 +18°C° 0 mm 1 m/S 687 mmHg 92%
    01:00 +18°C° 0 mm 1 m/S 687 mmHg 92%
    02:00 +18°C° 0 mm 1 m/S 687 mmHg 91%
    03:00 +16°C° 0 mm 1 m/S 687 mmHg 91%
    04:00 +16°C° 0 mm 2 m/S 686 mmHg 91%
    05:00 +18°C° 0 mm 2 m/S 687 mmHg 87%
    06:00 +19°C° 0 mm 2 m/S 687 mmHg 83%
    07:00 +21°C° 0 mm 2 m/S 687 mmHg 80%
    08:00 +24°C° 0 mm 2 m/S 688 mmHg 69%
    09:00 +27°C° 0 mm 2 m/S 688 mmHg 57%
    10:00 +29°C° 0 mm 2 m/S 688 mmHg 46%
    11:00 +30°C° 0 mm 2 m/S 688 mmHg 44%
    12:00 +31°C° 0 mm 2 m/S 688 mmHg 42%
    13:00 +32°C° 0 mm 2 m/S 688 mmHg 40%
    14:00 +31°C° 0,1 mm 2 m/S 687 mmHg 43%
    15:00 +31°C° 0,1 mm 2 m/S 687 mmHg 45%
    16:00 +30°C° 0,1 mm 2 m/S 687 mmHg 48%
    17:00 +29°C° 0,2 mm 2 m/S 687 mmHg 57%
    18:00 +27°C° 0,2 mm 2 m/S 686 mmHg 66%
    19:00 +25°C° 0,2 mm 2 m/S 686 mmHg 75%
    20:00 +24°C° 0 mm 2 m/S 686 mmHg 79%
    21:00 +23°C° 0 mm 2 m/S 686 mmHg 82%
    22:00 +20°C° 0 mm 3 m/S 686 mmHg 85%
    23:00 +20°C° 0 mm 3 m/S 686 mmHg 86%
    Mehr zeigen